Time,TemperatureF,DewpointF,PressureIn,WindDirection,WindDirectionDegrees,WindSpeedMPH,WindSpeedGustMPH,Humidity,HourlyPrecipIn,Conditions,Clouds,dailyrainin,SoftwareType,DateUTC
2015-04-18 00:03:00,57.7,55.7,30.07,NNW,340,0.0,5.0,93,0.00,,---,0.00,VWS V14.00,2015-04-17 22:03:00,
2015-04-18 00:13:00,57.7,55.7,30.07,North,360,0.0,0.0,93,0.00,,---,0.00,VWS V14.00,2015-04-17 22:13:00,
2015-04-18 00:18:00,57.6,55.6,30.07,North,5,0.0,0.0,93,0.00,,---,0.00,VWS V14.00,2015-04-17 22:18:00,
2015-04-18 00:23:00,57.7,55.7,30.07,North,5,0.0,0.0,93,0.00,,---,0.00,VWS V14.00,2015-04-17 22:23:00,
2015-04-18 00:28:00,57.7,55.7,30.07,North,360,0.0,0.0,93,0.00,,---,0.00,VWS V14.00,2015-04-17 22:28:00,
2015-04-18 00:33:00,57.6,55.6,30.07,North,360,0.0,0.0,93,0.00,,---,0.00,VWS V14.00,2015-04-17 22:33:00,
2015-04-18 00:38:00,57.6,55.6,30.07,North,5,0.0,0.0,93,0.00,,---,0.00,VWS V14.00,2015-04-17 22:38:00,
2015-04-18 00:43:00,57.5,55.5,30.07,North,5,0.0,0.0,93,0.00,,---,0.00,VWS V14.00,2015-04-17 22:43:00,
2015-04-18 00:48:00,57.4,55.4,30.07,North,5,0.0,0.0,93,0.00,,---,0.00,VWS V14.00,2015-04-17 22:48:00,
2015-04-18 00:53:00,57.3,55.3,30.07,North,5,0.0,0.0,93,0.00,,---,0.00,VWS V14.00,2015-04-17 22:53:00,
2015-04-18 00:58:00,57.3,55.3,30.07,North,5,0.0,0.0,93,0.00,,---,0.00,VWS V14.00,2015-04-17 22:58:00,
2015-04-18 01:03:00,57.4,55.7,30.07,North,5,0.0,0.0,94,0.00,,---,0.00,VWS V14.00,2015-04-17 23:03:00,
2015-04-18 01:08:00,57.0,55.0,30.07,North,5,0.0,0.0,93,0.00,,---,0.00,VWS V14.00,2015-04-17 23:08:00,
2015-04-18 01:18:00,57.3,55.6,30.07,North,5,0.0,0.0,94,0.00,,---,0.00,VWS V14.00,2015-04-17 23:18:00,
2015-04-18 01:23:00,57.5,55.8,30.07,North,5,0.0,0.0,94,0.00,,---,0.00,VWS V14.00,2015-04-17 23:23:00,
2015-04-18 01:28:00,57.5,55.8,30.07,North,5,0.0,0.0,94,0.00,,---,0.00,VWS V14.00,2015-04-17 23:28:00,
2015-04-18 01:33:00,57.2,55.2,30.07,North,360,0.0,4.0,93,0.00,,---,0.00,VWS V14.00,2015-04-17 23:33:00,
2015-04-18 01:38:00,56.9,54.9,30.07,NNW,337,4.0,5.0,93,0.00,,---,0.00,VWS V14.00,2015-04-17 23:38:00,
2015-04-18 01:43:00,56.7,55.0,30.07,North,355,2.0,5.0,94,0.00,,---,0.00,VWS V14.00,2015-04-17 23:43:00,
2015-04-18 01:48:00,56.6,54.9,30.07,North,355,0.0,2.0,94,0.00,,---,0.00,VWS V14.00,2015-04-17 23:48:00,
2015-04-18 01:53:00,56.6,54.9,30.06,North,355,0.0,1.0,94,0.00,,---,0.00,VWS V14.00,2015-04-17 23:53:00,
2015-04-18 01:58:00,56.4,54.4,30.06,North,355,0.0,0.0,93,0.00,,---,0.00,VWS V14.00,2015-04-17 23:58:00,
2015-04-18 02:03:00,56.2,54.5,30.06,North,355,0.0,0.0,94,0.00,,---,0.00,VWS V14.00,2015-04-18 00:03:00,
2015-04-18 02:08:00,56.2,54.5,30.06,North,355,0.0,0.0,94,0.00,,---,0.00,VWS V14.00,2015-04-18 00:08:00,
2015-04-18 02:13:00,56.2,54.5,30.06,North,355,0.0,0.0,94,0.00,,---,0.00,VWS V14.00,2015-04-18 00:13:00,
2015-04-18 02:18:00,56.2,54.5,30.06,North,355,0.0,0.0,94,0.00,,---,0.00,VWS V14.00,2015-04-18 00:18:00,
2015-04-18 02:23:00,56.3,54.6,30.06,North,355,0.0,0.0,94,0.00,,---,0.00,VWS V14.00,2015-04-18 00:23:00,
2015-04-18 02:28:00,56.2,54.5,30.06,North,355,0.0,0.0,94,0.00,,---,0.00,VWS V14.00,2015-04-18 00:28:00,
2015-04-18 02:33:00,56.1,54.4,30.05,North,355,0.0,0.0,94,0.00,,---,0.00,VWS V14.00,2015-04-18 00:33:00,
2015-04-18 02:38:00,56.0,54.3,30.05,North,355,0.0,0.0,94,0.00,,---,0.00,VWS V14.00,2015-04-18 00:38:00,
2015-04-18 02:43:00,55.9,54.2,30.05,North,355,0.0,0.0,94,0.00,,---,0.00,VWS V14.00,2015-04-18 00:43:00,
2015-04-18 02:48:00,55.6,53.9,30.05,North,355,0.0,0.0,94,0.00,,---,0.00,VWS V14.00,2015-04-18 00:48:00,
2015-04-18 02:53:00,55.3,53.6,30.05,North,355,0.0,0.0,94,0.00,,---,0.00,VWS V14.00,2015-04-18 00:53:00,
2015-04-18 02:58:00,55.0,53.0,30.04,North,355,0.0,0.0,93,0.00,,---,0.00,VWS V14.00,2015-04-18 00:58:00,
2015-04-18 03:08:00,54.1,52.1,30.04,North,355,0.0,0.0,93,0.00,,---,0.00,VWS V14.00,2015-04-18 01:08:00,
2015-04-18 03:13:00,54.1,52.4,30.04,North,355,0.0,0.0,94,0.00,,---,0.00,VWS V14.00,2015-04-18 01:13:00,
2015-04-18 03:18:00,55.1,53.7,30.03,North,355,1.0,3.0,95,0.00,,---,0.00,VWS V14.00,2015-04-18 01:18:00,
2015-04-18 03:23:00,55.5,53.8,30.03,North,355,1.0,1.0,94,0.00,,---,0.00,VWS V14.00,2015-04-18 01:23:00,
2015-04-18 03:28:00,55.7,54.0,30.03,North,360,0.0,3.0,94,0.00,,---,0.00,VWS V14.00,2015-04-18 01:28:00,
2015-04-18 03:33:00,55.7,54.0,30.03,North,360,0.0,0.0,94,0.00,,---,0.00,VWS V14.00,2015-04-18 01:33:00,
2015-04-18 03:38:00,55.6,53.9,30.03,North,360,0.0,0.0,94,0.00,,---,0.00,VWS V14.00,2015-04-18 01:38:00,
2015-04-18 03:43:00,55.3,53.6,30.03,North,360,0.0,0.0,94,0.00,,---,0.00,VWS V14.00,2015-04-18 01:43:00,
2015-04-18 03:48:00,54.9,53.2,30.02,North,360,0.0,0.0,94,0.00,,---,0.00,VWS V14.00,2015-04-18 01:48:00,
2015-04-18 03:53:00,54.7,53.0,30.02,North,360,0.0,0.0,94,0.00,,---,0.00,VWS V14.00,2015-04-18 01:53:00,
2015-04-18 03:58:00,54.7,53.0,30.02,North,360,0.0,0.0,94,0.00,,---,0.00,VWS V14.00,2015-04-18 01:58:00,
2015-04-18 04:03:00,54.8,53.1,30.02,North,360,0.0,0.0,94,0.00,,---,0.00,VWS V14.00,2015-04-18 02:03:00,
2015-04-18 04:08:00,54.8,53.1,30.02,North,360,0.0,0.0,94,0.00,,---,0.00,VWS V14.00,2015-04-18 02:08:00,
2015-04-18 04:13:00,54.8,53.1,30.02,North,360,0.0,0.0,94,0.00,,---,0.00,VWS V14.00,2015-04-18 02:13:00,
2015-04-18 04:18:00,54.6,52.9,30.02,North,360,0.0,0.0,94,0.00,,---,0.00,VWS V14.00,2015-04-18 02:18:00,
2015-04-18 04:23:00,54.5,52.5,30.02,North,360,0.0,0.0,93,0.00,,---,0.00,VWS V14.00,2015-04-18 02:23:00,
2015-04-18 04:28:00,54.4,52.4,30.02,North,360,0.0,0.0,93,0.00,,---,0.00,VWS V14.00,2015-04-18 02:28:00,
2015-04-18 04:38:00,53.8,51.8,30.02,North,360,0.0,0.0,93,0.00,,---,0.00,VWS V14.00,2015-04-18 02:38:00,
2015-04-18 04:43:00,53.9,51.9,30.02,North,360,0.0,0.0,93,0.00,,---,0.00,VWS V14.00,2015-04-18 02:43:00,
2015-04-18 04:48:00,54.1,52.4,30.02,North,360,0.0,0.0,94,0.00,,---,0.00,VWS V14.00,2015-04-18 02:48:00,
2015-04-18 04:53:00,54.0,52.0,30.01,North,360,0.0,0.0,93,0.00,,---,0.00,VWS V14.00,2015-04-18 02:53:00,
2015-04-18 04:58:00,54.0,52.3,30.01,North,360,0.0,0.0,94,0.00,,---,0.00,VWS V14.00,2015-04-18 02:58:00,
2015-04-18 05:03:00,53.9,51.9,30.01,North,360,1.0,4.0,93,0.00,,---,0.00,VWS V14.00,2015-04-18 03:03:00,
2015-04-18 05:08:00,53.9,51.9,30.01,North,360,0.0,3.0,93,0.00,,---,0.00,VWS V14.00,2015-04-18 03:08:00,
2015-04-18 05:13:00,53.8,51.8,30.01,North,360,0.0,0.0,93,0.00,,---,0.00,VWS V14.00,2015-04-18 03:13:00,
2015-04-18 05:18:00,53.2,51.2,30.01,North,360,0.0,0.0,93,0.00,,---,0.00,VWS V14.00,2015-04-18 03:18:00,
2015-04-18 05:23:00,52.2,50.2,30.00,North,360,0.0,0.0,93,0.00,,---,0.00,VWS V14.00,2015-04-18 03:23:00,
2015-04-18 05:28:00,52.0,50.0,30.00,North,360,0.0,0.0,93,0.00,,---,0.00,VWS V14.00,2015-04-18 03:28:00,
2015-04-18 05:33:00,51.6,49.7,30.00,North,360,0.0,0.0,93,0.00,,---,0.00,VWS V14.00,2015-04-18 03:33:00,
2015-04-18 05:38:00,50.9,49.0,30.00,North,360,0.0,0.0,93,0.00,,---,0.00,VWS V14.00,2015-04-18 03:38:00,
2015-04-18 05:43:00,50.9,49.2,30.00,North,360,0.0,0.0,94,0.00,,---,0.00,VWS V14.00,2015-04-18 03:43:00,
2015-04-18 05:48:00,51.3,49.6,30.00,North,360,0.0,0.0,94,0.00,,---,0.00,VWS V14.00,2015-04-18 03:48:00,
2015-04-18 05:53:00,51.5,49.8,30.00,North,360,0.0,0.0,94,0.00,,---,0.00,VWS V14.00,2015-04-18 03:53:00,
2015-04-18 05:58:00,51.6,49.9,30.00,North,360,0.0,0.0,94,0.00,,---,0.00,VWS V14.00,2015-04-18 03:58:00,
2015-04-18 06:03:00,50.9,49.0,30.00,North,360,0.0,0.0,93,0.00,,---,0.00,VWS V14.00,2015-04-18 04:03:00,
2015-04-18 06:08:00,50.2,48.3,30.00,North,360,0.0,0.0,93,0.00,,---,0.00,VWS V14.00,2015-04-18 04:08:00,
2015-04-18 06:13:00,50.1,48.4,30.00,North,360,0.0,0.0,94,0.00,,---,0.00,VWS V14.00,2015-04-18 04:13:00,
2015-04-18 06:18:00,50.3,48.6,30.00,North,360,0.0,0.0,94,0.00,,---,0.00,VWS V14.00,2015-04-18 04:18:00,
2015-04-18 06:23:00,50.5,48.8,30.00,North,360,0.0,0.0,94,0.00,,---,0.00,VWS V14.00,2015-04-18 04:23:00,
2015-04-18 06:28:00,50.9,49.5,30.00,North,360,0.0,0.0,95,0.00,,---,0.00,VWS V14.00,2015-04-18 04:28:00,
2015-04-18 06:33:00,52.1,50.7,29.99,North,355,0.0,3.0,95,0.00,,---,0.00,VWS V14.00,2015-04-18 04:33:00,
2015-04-18 06:38:00,52.7,51.3,29.99,North,355,0.0,0.0,95,0.00,,---,0.00,VWS V14.00,2015-04-18 04:38:00,
2015-04-18 06:43:00,51.5,49.5,30.00,North,355,0.0,0.0,93,0.00,,---,0.00,VWS V14.00,2015-04-18 04:43:00,
2015-04-18 06:48:00,50.5,48.8,30.00,North,355,0.0,0.0,94,0.00,,---,0.00,VWS V14.00,2015-04-18 04:48:00,
2015-04-18 06:53:00,50.4,48.7,30.00,North,355,0.0,0.0,94,0.00,,---,0.00,VWS V14.00,2015-04-18 04:53:00,
2015-04-18 06:58:00,51.7,50.3,30.00,North,355,0.0,0.0,95,0.00,,---,0.00,VWS V14.00,2015-04-18 04:58:00,
2015-04-18 07:03:00,52.3,50.9,30.00,NNE,18,0.0,4.0,95,0.00,,---,0.00,VWS V14.00,2015-04-18 05:03:00,
2015-04-18 07:08:00,52.4,51.0,30.00,North,350,0.0,5.0,95,0.00,,---,0.00,VWS V14.00,2015-04-18 05:08:00,
2015-04-18 07:13:00,52.5,51.1,30.00,North,350,0.0,0.0,95,0.00,,---,0.00,VWS V14.00,2015-04-18 05:13:00,
2015-04-18 07:18:00,52.3,50.6,30.00,North,350,0.0,0.0,94,0.00,,---,0.00,VWS V14.00,2015-04-18 05:18:00,
2015-04-18 07:23:00,52.4,51.0,30.00,North,355,0.0,3.0,95,0.00,,---,0.00,VWS V14.00,2015-04-18 05:23:00,
2015-04-18 07:28:00,52.5,51.1,30.00,North,355,0.0,0.0,95,0.00,,---,0.00,VWS V14.00,2015-04-18 05:28:00,
2015-04-18 07:33:00,52.5,51.1,30.00,North,351,3.0,4.0,95,0.00,,---,0.00,VWS V14.00,2015-04-18 05:33:00,
2015-04-18 07:38:00,52.5,50.8,30.00,North,349,3.0,5.0,94,0.00,,---,0.00,VWS V14.00,2015-04-18 05:38:00,
2015-04-18 07:43:00,52.5,50.8,30.01,North,360,4.0,6.0,94,0.00,,---,0.00,VWS V14.00,2015-04-18 05:43:00,
2015-04-18 07:48:00,52.5,50.8,30.01,NNW,346,3.0,6.0,94,0.00,,---,0.00,VWS V14.00,2015-04-18 05:48:00,
2015-04-18 07:53:00,52.6,50.9,30.01,North,355,5.0,6.0,94,0.00,,---,0.00,VWS V14.00,2015-04-18 05:53:00,